Simultaneous Nadir Overpasses (SNOs) Predictions

Prediction of SNOs between AQUA and METOP-A Satellite Orbit:

Table of predicted SNOs for the next 14.0 days since TLE Epoch: 4/25/2015
Index Date (AQUA) Time (AQUA) Lat,Lon (AQUA) SZA (AQUA ) Date (METOP-A) Time (METOP-A) Lat,Lon (METOP-A) SZA (METOP-A ) Distance(km) Time Diff (sec)
1 04/27/2015 17:54:11 -73.89, 85.83 120.03 04/27/2015 17:53:24 -73.91, 85.94 120.02 3.73 47
2 04/27/2015 18:43:39 73.93,-106.62 60.00 04/27/2015 18:44:03 73.93,-106.66 60.00 1.05 24
3 04/30/2015 13:28:25 -73.88, 152.29 120.93 04/30/2015 13:27:43 -73.90, 152.34 120.90 2.59 42
4 04/30/2015 14:17:53 73.93, -40.18 59.12 04/30/2015 14:18:22 73.93, -40.26 59.12 2.54 29
5 05/03/2015 09:02:38 -73.88,-141.27 121.77 05/03/2015 09:02:02 -73.88,-141.29 121.77 0.40 36
6 05/03/2015 09:52:06 73.93, 26.25 58.28 05/03/2015 09:52:40 73.96, 26.23 58.30 2.58 34
7 05/06/2015 04:36:49 -73.90, -74.86 122.57 05/06/2015 04:36:19 -73.90, -74.82 122.56 1.21 30
8 05/06/2015 05:26:17 73.95, 92.65 57.48 05/06/2015 05:26:57 73.98, 92.70 57.50 2.77 40
9 05/09/2015 00:11:00 -73.92, -8.47 123.32 05/09/2015 00:10:37 -73.91, -8.39 123.33 3.15 23
10 05/09/2015 01:00:28 73.98, 159.03 56.74 05/09/2015 01:01:15 73.98, 159.13 56.73 2.98 47




NCC Satellite Simultaneous Nadir Overpasses (SNOs) Prediction Service
